H1 CPF 2 NER 2023 12 15 9 349 01 glonass127 H2 1106403 9127 37869 2023 12 15 0 0 0 2023 12 18 23 45 0 900 1 1 0 0 0 1 H9 10 0 60293 0.00000 0 -20731747.896 -12070815.137 -8554539.999 10 0 60293 900.00000 0 -19597485.707 -11539575.933 -11454420.293 10 0 60293 1800.00000 0 -18094388.445 -11005706.351 -14130642.637 10 0 60293 2700.00000 0 -16248473.208 -10524022.105 -16530827.861 10 0 60293 3600.00000 0 -14097931.247 -10144355.224 -18607981.125 10 0 60293 4500.00000 0 -11691735.822 -9909280.976 -20321433.416 10 0 60293 5400.00000 0 -9087801.646 -9852167.812 -21637655.654 10 0 60293 6300.00000 0 -6350773.407 -9995635.241 -22530927.920 10 0 60293 7200.00000 0 -3549537.025 -10350486.748 -22983849.656 10 0 60293 8100.00000 0 -754559.195 -10915163.967 -22987680.361 10 0 60293 9000.00000 0 1964832.031 -11675745.559 -22542504.199 10 0 60293 9900.00000 0 4543110.560 -12606490.409 -21657215.828 10 0 60293 10800.00000 0 6921047.347 -13670901.090 -20349328.774 10 0 60293 11700.00000 0 9047932.776 -14823261.108 -18644611.430 10 0 60293 12600.00000 0 10883434.051 -16010579.096 -16576559.462 10 0 60293 13500.00000 0 12399011.439 -17174855.906 -14185716.717 10 0 60293 14400.00000 0 13578836.434 -18255577.075 -11518859.793 10 0 60293 15300.00000 0 14420176.459 -19192324.024 -8628064.035 10 0 60293 16200.00000 0 14933233.528 -19927392.875 -5569670.926 10 0 60293 17100.00000 0 15140447.517 -20408310.129 -2403178.441 10 0 60293 18000.00000 0 15075297.018 -20590139.536 809922.830 10 0 60293 18900.00000 0 14780651.653 -20437483.976 4007344.441 10 0 60293 19800.00000 0 14306747.925 -19926099.592 7127202.321 10 0 60293 20700.00000 0 13708875.733 -19044056.174 10109203.450 10 0 60293 21600.00000 0 13044873.892 -17792396.983 12895794.889 10 0 60293 22500.00000 0 12372540.029 -16185272.116 15433254.372 10 0 60293 23400.00000 0 11747062.878 -14249541.147 17672703.229 10 0 60293 24300.00000 0 11218583.260 -12023862.337 19571024.282 10 0 60293 25200.00000 0 10829984.091 -9557306.235 21091669.409 10 0 60293 26100.00000 0 10614999.939 -6907550.410 22205343.467 10 0 60293 27000.00000 0 10596723.329 -4138728.487 22890553.549 10 0 60293 27900.00000 0 10786568.867 -1319020.175 23134014.607 10 0 60293 28800.00000 0 11183737.725 1481920.839 22930904.710 10 0 60293 29700.00000 0 11775205.026 4195597.864 22284965.338 10 0 60293 30600.00000 0 12536231.660 6757255.329 21208444.385 10 0 60293 31500.00000 0 13431380.988 9108311.794 19721881.735 10 0 60293 32400.00000 0 14416000.378 11198543.218 17853739.727 10 0 60293 33300.00000 0 15438108.399 12987927.277 15639883.223 10 0 60293 34200.00000 0 16440611.394 14448072.539 13122916.652 10 0 60293 35100.00000 0 17363758.968 15563172.575 10351388.073 10 0 60293 36000.00000 0 18147737.061 16330444.102 7378873.052 10 0 60293 36900.00000 0 18735290.446 16760029.091 4262953.946 10 0 60293 37800.00000 0 19074264.090 16874363.085 1064112.808 10 0 60293 38700.00000 0 19119954.994 16707034.366 -2155441.448 10 0 60293 39600.00000 0 18837173.045 16301180.521 -5332988.827 10 0 60293 40500.00000 0 18201920.920 15707489.125 -8406532.595 10 0 60293 41400.00000 0 17202618.582 14981886.813 -11316026.726 10 0 60293 42300.00000 0 15840817.089 14183015.153 -14004570.536 10 0 60293 43200.00000 0 14131368.182 13369601.533 -16419544.909 10 0 60293 44100.00000 0 12102039.588 12597838.387 -18513665.544 10 0 60293 45000.00000 0 9792590.106 11918884.133 -20245930.290 10 0 60293 45900.00000 0 7253342.098 11376594.106 -21582440.043 10 0 60293 46800.00000 0 4543310.916 11005579.821 -22497075.548 10 0 60293 47700.00000 0 1727970.163 10829680.528 -22972015.771 10 0 60293 48600.00000 0 -1123252.634 10860912.914 -22998087.163 10 0 60293 49500.00000 0 -3939643.839 11098943.762 -22574937.059 10 0 60293 50400.00000 0 -6651922.034 11531107.522 -21711028.310 10 0 60293 51300.00000 0 -9194892.168 12132966.930 -20423456.310 10 0 60293 52200.00000 0 -11509924.023 12869391.290 -18737593.297 10 0 60293 53100.00000 0 -13547151.462 13696104.740 -16686568.564 10 0 60293 54000.00000 0 -15267301.468 14561636.800 -14310596.518 10 0 60293 54900.00000 0 -16643078.203 15409590.518 -11656167.565 10 0 60293 55800.00000 0 -17660046.683 16181130.450 -8775119.528 10 0 60293 56700.00000 0 -18316982.195 16817583.851 -5723609.386 10 0 60293 57600.00000 0 -18625674.425 17263044.365 -2561006.897 10 0 60293 58500.00000 0 -18610198.168 17466868.080 651267.179 10 0 60293 59400.00000 0 -18305684.853 17385957.147 3850934.899 10 0 60293 60300.00000 0 -17756649.560 16986735.801 6976063.590 10 0 60293 61200.00000 0 -17014946.242 16246737.093 9966253.861 10 0 60293 62100.00000 0 -16137438.613 15155735.399 12763791.022 10 0 60293 63000.00000 0 -15183485.056 13716378.870 15314739.050 10 0 60293 63900.00000 0 -14212342.768 11944296.750 17569957.783 10 0 60293 64800.00000 0 -13280598.776 9867677.962 19486025.880 10 0 60293 65700.00000 0 -12439733.606 7526338.692 21026054.143 10 0 60293 66600.00000 0 -11733917.426 4970317.124 22160375.816 10 0 60293 67500.00000 0 -11198128.569 2258052.228 22867102.672 10 0 60293 68400.00000 0 -10856671.101 -545780.163 23132537.883 10 0 60293 69300.00000 0 -10722151.962 -3372687.141 22951438.784 10 0 60293 70200.00000 0 -10794959.699 -6152937.429 22327124.857 10 0 60293 71100.00000 0 -11063266.794 -8818195.574 21271428.471 10 0 60293 72000.00000 0 -11503556.543 -11304105.578 19804488.157 10 0 60293 72900.00000 0 -12081654.285 -13552719.467 17954386.607 10 0 60293 73800.00000 0 -12754222.159 -15514671.871 15756637.987 10 0 60293 74700.00000 0 -13470657.359 -17151011.120 13253531.812 10 0 60293 75600.00000 0 -14175316.689 -18434610.641 10493343.308 10 0 60293 76500.00000 0 -14809975.989 -19351100.894 7529422.889 10 0 60293 77400.00000 0 -15316422.228 -19899281.301 4419180.226 10 0 60293 78300.00000 0 -15639069.370 -20090992.923 1222980.989 10 0 60293 79200.00000 0 -15727486.938 -19950455.102 -1997023.237 10 0 60293 80100.00000 0 -15538732.773 -19513092.053 -5178109.132 10 0 60293 81000.00000 0 -15039388.750 -18823897.404 -8258215.640 10 0 60293 81900.00000 0 -14207210.142 -17935404.927 -11177172.336 10 0 60293 82800.00000 0 -13032315.290 -16905351.229 -13877896.269 10 0 60293 83700.00000 0 -11517861.706 -15794130.057 -16307531.644 10 0 60293 84600.00000 0 -9680176.771 -14662147.411 -18418507.707 10 0 60293 85500.00000 0 -7548334.827 -13567191.389 -20169491.808 10 0 60294 0.00000 0 -5163196.789 -12561930.363 -21526216.873 10 0 60294 900.00000 0 -2575950.299 -11691646.942 -22462166.161 10 0 60294 1800.00000 0 153785.221 -10992306.744 -22959099.016 10 0 60294 2700.00000 0 2960212.874 -10489043.073 -23007409.248 10 0 60294 3600.00000 0 5773873.391 -10195123.431 -22606307.200 10 0 60294 4500.00000 0 8524315.679 -10111440.741 -21763823.259 10 0 60294 5400.00000 0 11142809.732 -10226549.770 -20496633.584 10 0 60294 6300.00000 0 13564987.536 -10517245.475 -18829712.775 10 0 60294 7200.00000 0 15733301.160 -10949656.542 -16795821.914 10 0 60294 8100.00000 0 17599195.574 -11480805.317 -14434843.775 10 0 60294 9000.00000 0 19124906.445 -12060565.549 -11792980.055 10 0 60294 9900.00000 0 20284809.541 -12633932.706 -8921828.193 10 0 60294 10800.00000 0 21066267.897 -13143508.827 -5877357.523 10 0 60294 11700.00000 0 21469944.418 -13532095.400 -2718806.206 10 0 60294 12600.00000 0 21509570.263 -13745283.899 492478.339 10 0 60294 13500.00000 0 21211182.275 -13733934.510 3694232.220 10 0 60294 14400.00000 0 20611864.688 -13456439.068 6824477.611 10 0 60294 15300.00000 0 19758050.643 -12880673.982 9822711.987 10 0 60294 16200.00000 0 18703456.731 -11985562.479 12631061.844 10 0 60294 17100.00000 0 17506738.230 -10762182.153 15195379.969 10 0 60294 18000.00000 0 16228963.390 -9214372.856 17466266.849 10 0 60294 18900.00000 0 14931011.735 -7358820.566 19399998.701 10 0 60294 19800.00000 0 13671003.574 -5224614.157 20959346.550 10 0 60294 20700.00000 0 12501866.086 -2852293.236 22114272.900 10 0 60294 21600.00000 0 11469135.202 -292425.461 22842494.694 10 0 60294 22500.00000 0 10609082.690 2396229.593 23129903.437 10 0 60294 23400.00000 0 9947244.621 5148896.512 22970835.486 10 0 60294 24300.00000 0 9497411.207 7897213.080 22368187.747 10 0 60294 25200.00000 0 9261119.583 10571815.048 21333376.183 10 0 60294 26100.00000 0 9227671.004 13104972.787 19886136.815 10 0 60294 27000.00000 0 9374672.812 15433173.432 18054171.268 10 0 60294 27900.00000 0 9669084.308 17499543.562 15872641.364 10 0 60294 28800.00000 0 10068724.895 19256013.068 13383519.836 10 0 60294 29700.00000 0 10524183.564 20665130.505 10634806.991 10 0 60294 30600.00000 0 10981051.582 21701453.645 7679625.799 10 0 60294 31500.00000 0 11382385.973 22352455.692 4575210.759 10 0 60294 32400.00000 0 11671300.736 22618907.220 1381808.502 10 0 60294 33300.00000 0 11793576.219 22514715.494 -1838489.477 10 0 60294 34200.00000 0 11700175.191 22066225.650 -5022959.351 10 0 60294 35100.00000 0 11349557.026 21311011.176 -8109478.513 10 0 60294 36000.00000 0 10709689.177 20296203.351 -11037754.803 10 0 60294 36900.00000 0 9759667.363 19076429.503 -13750525.484 10 0 60294 37800.00000 0 8490872.298 17711447.370 -16194700.337 10 0 60294 38700.00000 0 6907610.559 16263576.511 -18322424.167 10 0 60294 39600.00000 0 5027209.436 14795036.861 -20092035.590 10 0 60294 40500.00000 0 2879559.349 13365308.877 -21468901.304 10 0 60294 41400.00000 0 506121.483 12028628.842 -22426107.879 10 0 60294 42300.00000 0 -2041558.363 10831726.947 -22944996.370 10 0 60294 43200.00000 0 -4703767.268 9811905.069 -23015528.710 10 0 60294 44100.00000 0 -7414892.918 8995536.034 -22636478.692 10 0 60294 45000.00000 0 -10105945.430 8397047.640 -21815444.298 10 0 60294 45900.00000 0 -12707226.419 8018433.365 -20568682.098 10 0 60294 46800.00000 0 -15151032.492 7849308.678 -18920768.261 10 0 60294 47700.00000 0 -17374279.237 7867508.216 -16904094.458 10 0 60294 48600.00000 0 -19320935.723 8040195.790 -14558210.270 10 0 60294 49500.00000 0 -20944168.144 8325437.342 -11929026.824 10 0 60294 50400.00000 0 -22208104.112 8674167.388 -9067899.102 10 0 60294 51300.00000 0 -23089145.718 9032463.242 -6030606.547 10 0 60294 52200.00000 0 -23576779.019 9344028.714 -2876253.356 10 0 60294 53100.00000 0 -23673849.074 9552780.879 333888.871 10 0 60294 54000.00000 0 -23396292.317 9605429.915 3537572.860 10 0 60294 54900.00000 0 -22772340.707 9453943.158 6672778.298 10 0 60294 55800.00000 0 -21841233.887 9057790.157 9678902.278 10 0 60294 56700.00000 0 -20651495.590 8385875.384 12497915.281 10 0 60294 57600.00000 0 -19258847.923 7418078.830 15075461.702 10 0 60294 58500.00000 0 -17723851.367 6146341.328 17361885.421 10 0 60294 59400.00000 0 -16109368.748 4575250.390 19313162.794 10 0 60294 60300.00000 0 -14477957.828 2722102.819 20891727.424 10 0 60294 61200.00000 0 -12889299.390 616441.531 22067173.128 10 0 60294 62100.00000 0 -11397765.615 -1700914.903 22816823.713 10 0 60294 63000.00000 0 -10050227.535 -4179311.259 23126160.309 10 0 60294 63900.00000 0 -8884190.495 -6760105.873 22989099.177 10 0 60294 64800.00000 0 -7926333.331 -9378858.257 22408115.107 10 0 60294 65700.00000 0 -7191510.843 -11967766.827 21394207.688 10 0 60294 66600.00000 0 -6682260.694 -14458258.988 19966710.044 10 0 60294 67500.00000 0 -6388835.684 -16783629.292 18152941.952 10 0 60294 68400.00000 0 -6289761.203 -18881618.704 15987711.699 10 0 60294 69300.00000 0 -6352896.261 -20696829.456 13512673.691 10 0 60294 70200.00000 0 -6536955.660 -22182875.752 10775551.427 10 0 60294 71100.00000 0 -6793431.437 -23304180.405 7829238.250 10 0 60294 72000.00000 0 -7068834.447 -24037341.106 4730791.059 10 0 60294 72900.00000 0 -7307162.747 -24372007.252 1540334.809 10 0 60294 73800.00000 0 -7452492.839 -24311228.093 -1680101.918 10 0 60294 74700.00000 0 -7451583.582 -23871255.016 -4867797.750 10 0 60294 75600.00000 0 -7256380.958 -23080803.850 -7960571.636 10 0 60294 76500.00000 0 -6826315.147 -21979806.305 -10898012.867 10 0 60294 77400.00000 0 -6130289.519 -20617701.949 -13622682.141 10 0 60294 78300.00000 0 -5148273.805 -19051342.305 -16081257.992 10 0 60294 79200.00000 0 -3872430.483 -17342595.911 -18225603.807 10 0 60294 80100.00000 0 -2307723.442 -15555756.496 -20013732.232 10 0 60294 81000.00000 0 -471980.457 -13754865.271 -21410646.027 10 0 60294 81900.00000 0 1604595.247 -12001062.155 -22389037.283 10 0 60294 82800.00000 0 3880444.988 -10350079.452 -22929830.086 10 0 60294 83700.00000 0 6304163.705 -8849985.145 -23022555.451 10 0 60294 84600.00000 0 8816434.405 -7539271.800 -22665551.100 10 0 60294 85500.00000 0 11352305.927 -6445371.773 -21865982.646 10 0 60295 0.00000 0 13843717.063 -5583660.637 -20639686.825 10 0 60295 900.00000 0 16222161.346 -4956988.849 -19010840.411 10 0 60295 1800.00000 0 18421376.416 -4555760.214 -17011464.626 10 0 60295 2700.00000 0 20379949.104 -4358549.377 -14680774.342 10 0 60295 3600.00000 0 22043723.674 -4333230.264 -12064388.194 10 0 60295 4500.00000 0 23367914.304 -4438563.980 -9213416.360 10 0 60295 5400.00000 0 24318834.436 -4626176.022 -6183445.643 10 0 60295 6300.00000 0 24875172.552 -4842836.530 -3033443.187 10 0 60295 7200.00000 0 25028763.521 -5032945.102 175398.588 10 0 60295 8100.00000 0 24784826.116 -5141113.877 3380852.530 10 0 60295 9000.00000 0 24161659.804 -5114739.215 6520859.377 10 0 60295 9900.00000 0 23189816.377 -4906453.740 9534719.278 10 0 60295 10800.00000 0 21910783.516 -4476356.226 12364249.938 10 0 60295 11700.00000 0 20375237.116 -3793926.817 14954890.328 10 0 60295 12600.00000 0 18640936.318 -2839548.605 17256730.359 10 0 60295 13500.00000 0 16770349.119 -1605573.176 19225448.814 10 0 60295 14400.00000 0 14828106.654 -96886.575 20823143.794 10 0 60295 15300.00000 0 12878390.529 1669047.480 22019041.985 10 0 60295 16200.00000 0 10982359.631 3662669.252 22790075.229 10 0 60295 17100.00000 0 9195720.841 5843310.600 23121315.074 10 0 60295 18000.00000 0 7566541.991 8160649.461 23006258.077 10 0 60295 18900.00000 0 6133395.643 10556573.488 22446956.888 10 0 60295 19800.00000 0 4923908.996 12967378.658 21453994.299 10 0 60295 20700.00000 0 3953779.189 15326214.965 20046299.706 10 0 60295 21600.00000 0 3226294.713 17565680.925 18250809.816 10 0 60295 22500.00000 0 2732383.404 19620461.957 16101977.822 10 0 60295 23400.00000 0 2451186.254 21429904.966 13641137.910 10 0 60295 24300.00000 0 2351134.671 22940423.112 10915734.594 10 0 60295 25200.00000 0 2391487.938 24107630.571 7978429.155 10 0 60295 26100.00000 0 2524267.978 24898117.206 4886098.223 10 0 60295 27000.00000 0 2696511.310 25290787.087 1698742.221 10 0 60295 27900.00000 0 2852743.865 25277702.301 -1521676.166 10 0 60295 28800.00000 0 2937573.883 24864393.846 -4712441.069 10 0 60295 29700.00000 0 2898292.096 24069623.710 -7811316.000 10 0 60295 30600.00000 0 2687367.090 22924605.679 -10757774.605 10 0 60295 31500.00000 0 2264727.406 21471715.800 -13494203.733 10 0 60295 32400.00000 0 1599730.463 19762745.694 -15967053.151 10 0 60295 33300.00000 0 672731.450 17856772.068 -18127907.052 10 0 60295 34200.00000 0 -523817.569 15817732.762 -19934454.068 10 0 60295 35100.00000 0 -1984787.804 13711812.646 -21351334.715 10 0 60295 36000.00000 0 -3692340.034 11604751.082 -22350848.018 10 0 60295 36900.00000 0 -5616440.055 9559186.087 -22913502.241 10 0 60295 37800.00000 0 -7715902.414 7632148.533 -23028398.311 10 0 60295 38700.00000 0 -9939918.491 5872812.938 -22693438.361 10 0 60295 39600.00000 0 -12230004.069 4320599.923 -21915355.719 10 0 60295 40500.00000 0 -14522283.465 3003709.780 -20709566.693 10 0 60295 41400.00000 0 -16750013.022 1938147.570 -19099848.326 10 0 60295 42300.00000 0 -18846236.748 1127278.715 -17117850.032 10 0 60295 43200.00000 0 -20746461.632 561930.969 -14802450.429 10 0 60295 44100.00000 0 -22391239.873 221035.162 -12198973.821 10 0 60295 45000.00000 0 -23728549.695 72774.120 -9358283.514 10 0 60295 45900.00000 0 -24715875.648 76187.747 -6335771.436 10 0 60295 46800.00000 0 -25321902.537 183163.238 -3190265.295 10 0 60295 47700.00000 0 -25527753.999 340723.675 17124.167 10 0 60295 48600.00000 0 -25327726.258 493516.350 3224192.543 10 0 60295 49500.00000 0 -24729489.079 586394.594 6368844.348 10 0 60295 50400.00000 0 -23753748.208 566983.821 9390285.614 10 0 60295 51300.00000 0 -22433385.884 388124.070 12230184.162 10 0 60295 52200.00000 0 -20812117.260 10087.237 14833776.422 10 0 60295 53100.00000 0 -18942720.043 -597522.796 17150901.140 10 0 60295 54000.00000 0 -16884911.492 -1454265.349 19136942.160 10 0 60295 54900.00000 0 -14702960.638 -2567815.150 20753664.452 10 0 60295 55800.00000 0 -12463133.628 -3933414.488 21969929.598 10 0 60295 56700.00000 0 -10231076.276 -5533847.950 22762279.113 10 0 60295 57600.00000 0 -8069239.860 -7339941.411 23115376.171 10 0 60295 58500.00000 0 -6034454.296 -9311565.923 23022298.400 10 0 60295 59400.00000 0 -4175746.681 -11399107.009 22484676.664 10 0 60295 60300.00000 0 -2532493.480 -13545341.172 21512676.900 10 0 60295 61200.00000 0 -1132981.466 -15687644.831 20124824.336 10 0 60295 62100.00000 0 6563.628 -17760447.217 18347671.803 10 0 60295 63000.00000 0 882440.391 -19697828.182 16215316.235 10 0 60295 63900.00000 0 1503406.867 -21436155.252 13768770.087 10 0 60295 64800.00000 0 1890088.961 -22916651.540 11055197.073 10 0 60295 65700.00000 0 2073885.209 -24087787.949 8127024.300 10 0 60295 66600.00000 0 2095412.134 -24907399.114 5040945.783 10 0 60295 67500.00000 0 2002554.051 -25344432.994 1856834.867 10 0 60295 68400.00000 0 1848198.543 -25380258.427 -1363414.360 10 0 60295 69300.00000 0 1687752.936 -25009472.851 -4557094.354 10 0 60295 70200.00000 0 1576547.406 -24240173.158 -7661916.100 10 0 60295 71100.00000 0 1567236.116 -23093675.328 -10617240.568 10 0 60295 72000.00000 0 1707308.743 -21603692.136 -13365283.748 10 0 60295 72900.00000 0 2036820.731 -19815001.766 -15852269.571 10 0 60295 73800.00000 0 2586441.654 -17781662.403 -18029505.843 10 0 60295 74700.00000 0 3375907.654 -15564847.879 -19854359.762 10 0 60295 75600.00000 0 4412946.478 -13230396.143 -21291111.874 10 0 60295 76500.00000 0 5692723.180 -10846174.888 -22311670.028 10 0 60295 77400.00000 0 7197831.743 -8479376.712 -22896128.119 10 0 60295 78300.00000 0 8898834.106 -6193859.029 -23033158.009 10 0 60295 79200.00000 0 10755324.195 -4047641.794 -22720226.827 10 0 60295 80100.00000 0 12717471.682 -2090668.888 -21963635.813 10 0 60295 81000.00000 0 14727979.555 -362927.186 -20778380.803 10 0 60295 81900.00000 0 16724371.798 1106998.534 -19187838.386 10 0 60295 82800.00000 0 18641513.517 2302875.856 -17223285.413 10 0 60295 83700.00000 0 20414256.233 3221242.741 -14923263.058 10 0 60295 84600.00000 0 21980096.173 3871278.930 -12332799.734 10 0 60295 85500.00000 0 23281733.355 4274139.741 -9502509.932 10 0 60296 0.00000 0 24269424.028 4461784.123 -6487588.660 10 0 60296 900.00000 0 24903028.969 4475350.080 -3346720.983 10 0 60296 1800.00000 0 25153671.850 4363149.053 -140933.295 10 0 60296 2700.00000 0 25004941.837 4178366.791 3067595.866 10 0 60296 3600.00000 0 24453590.981 3976569.270 6216737.997 10 0 60296 4500.00000 0 23509700.229 3813119.880 9245608.206 10 0 60296 5400.00000 0 22196309.388 3740616.798 12095727.521 10 0 60296 6300.00000 0 20548528.436 3806457.763 14712132.771 10 0 60296 7200.00000 0 18612168.688 4050633.382 17044414.256 10 0 60296 8100.00000 0 16441951.414 4503840.092 19047663.371 10 0 60296 9000.00000 0 14099368.205 5185990.290 20683314.189 10 0 60296 9900.00000 0 11650280.850 6105180.705 21919865.138 10 0 60296 10800.00000 0 9162358.483 7257161.334 22733469.055 10 0 60296 11700.00000 0 6702455.747 8625327.093 23108382.035 10 0 60296 12600.00000 0 4334037.854 10181233.330 23037263.689 10 0 60296 13500.00000 0 2114756.376 11885615.385 22521323.581 10 0 60296 14400.00000 0 94273.567 13689872.188 21570310.812 10 0 60296 15300.00000 0 -1687576.600 15537955.079 20202345.987 10 0 60296 16200.00000 0 -3202215.798 17368586.406 18443597.138 10 0 60296 17100.00000 0 -4433278.315 19117718.669 16327803.573 10 0 60296 18000.00000 0 -5377057.573 20721134.338 13895654.274 10 0 60296 18900.00000 0 -6042422.594 22117079.864 11194030.055 10 0 60296 19800.00000 0 -6450206.459 23248824.841 8275121.482 10 0 60296 20700.00000 0 -6632090.688 24067039.160 5195437.339 10 0 60296 21600.00000 0 -6629030.749 24531887.440 2014721.087 10 0 60296 22500.00000 0 -6489287.711 24614750.765 -1205204.728 10 0 60296 23400.00000 0 -6266148.345 24299500.572 -4401643.920 10 0 60296 24300.00000 0 -6015430.122 23583267.931 -7512258.004 10 0 60296 25200.00000 0 -5792877.581 22476672.520 -10476298.267 10 0 60296 26100.00000 0 -5651562.074 21003498.649 -13235812.700 10 0 60296 27000.00000 0 -5639397.522 19199829.520 -15736802.077 10 0 60296 27900.00000 0 -5796880.308 17112674.447 -17930300.257 10 0 60296 28800.00000 0 -6155152.211 14798146.029 -19773355.194 10 0 60296 29700.00000 0 -6734471.372 12319263.936 -21229889.376 10 0 60296 30600.00000 0 -7543158.661 9743478.380 -22271421.119 10 0 60296 31500.00000 0 -8577066.031 7140018.575 -22877631.289 10 0 60296 32400.00000 0 -9819590.623 4577178.956 -23036763.695 10 0 60296 33300.00000 0 -11242234.568 2119658.398 -22745851.114 10 0 60296 34200.00000 0 -12805686.576 -173934.889 -22010762.940 10 0 60296 35100.00000 0 -14461378.852 -2253307.782 -20846074.357 10 0 60296 36000.00000 0 -16153452.345 -4078343.066 -19274760.863 10 0 60296 36900.00000 0 -17821045.934 -5620519.834 -17327725.691 10 0 60296 37800.00000 0 -19400811.529 -6863835.962 -15043171.136 10 0 60296 38700.00000 0 -20829547.785 -7805196.826 -12465827.951 10 0 60296 39600.00000 0 -22046840.600 -8454257.353 -9646059.792 10 0 60296 40500.00000 0 -22997598.820 -8832727.887 -6638861.958 10 0 60296 41400.00000 0 -23634378.782 -8973176.934 -3502775.557 10 0 60296 42300.00000 0 -23919400.772 -8917384.854 -298739.561 10 0 60296 43200.00000 0 -23826174.219 -8714320.994 2911096.045 10 0 60296 44100.00000 0 -23340665.296 -8417831.938 6064572.559 10 0 60296 45000.00000 0 -22461960.160 -8084139.813 9100717.081 10 0 60296 45900.00000 0 -21202398.253 -7769256.659 11960906.831 10 0 60296 46800.00000 0 -19587172.029 -7526423.433 14589982.007 10 0 60296 47700.00000 0 -17653411.288 -7403680.350 16937287.366 10 0 60296 48600.00000 0 -15448791.070 -7441669.083 18957624.562 10 0 60296 49500.00000 0 -13029720.962 -7671757.276 20612099.210 10 0 60296 50400.00000 0 -10459190.214 -8114562.243 21868848.680 10 0 60296 51300.00000 0 -7804356.319 -8778934.297 22703638.812 10 0 60296 52200.00000 0 -5133974.603 -9661441.493 23100319.880 10 0 60296 53100.00000 0 -2515772.517 -10746377.380 23051134.294 10 0 60296 54000.00000 0 -13874.248 -12006292.428 22556870.701 10 0 60296 54900.00000 0 2313620.581 -13403028.759 21626861.351 10 0 60296 55800.00000 0 4416806.312 -14889217.564 20278821.830 10 0 60296 56700.00000 0 6255800.672 -16410179.684 18538534.605 10 0 60296 57600.00000 0 7802159.310 -17906153.194 16439380.240 10 0 60296 58500.00000 0 9039816.834 -19314757.773 14021722.756 10 0 60296 59400.00000 0 9965514.546 -20573595.232 11332158.234 10 0 60296 60300.00000 0 10588695.788 -21622878.839 8422638.520 10 0 60296 61200.00000 0 10930871.649 -22407981.732 5349484.688 10 0 60296 62100.00000 0 11024481.889 -22881796.869 2172307.590 10 0 60296 63000.00000 0 10911297.424 -23006807.717 -1047144.689 10 0 60296 63900.00000 0 10640430.585 -22756780.016 -4246190.342 10 0 60296 64800.00000 0 10266036.696 -22118000.251 -7362444.480 10 0 60296 65700.00000 0 9844804.522 -21090005.188 -10335051.765 10 0 60296 66600.00000 0 9433342.997 -19685768.347 -13105895.177 10 0 60296 67500.00000 0 9085576.826 -17931332.541 -15620755.200 10 0 60296 68400.00000 0 8850263.815 -15864901.556 -17830394.426 10 0 60296 69300.00000 0 8768741.926 -13535427.700 -19691543.986 10 0 60296 70200.00000 0 8873004.334 -11000753.944 -21167770.412 10 0 60296 71100.00000 0 9184186.575 -8325388.856 -22230204.186 10 0 60296 72000.00000 0 9711531.932 -5578008.629 -22858114.424 10 0 60296 72900.00000 0 10451880.210 -2828792.185 -23039317.707 10 0 60296 73800.00000 0 11389702.189 -146702.476 -22770412.855 10 0 60296 74700.00000 0 12497678.141 2403170.895 -22056837.402 10 0 60296 75600.00000 0 13737795.172 4762095.629 -20912745.502 10 0 60296 76500.00000 0 15062915.655 6879903.146 -19360710.860 10 0 60296 77400.00000 0 16418748.827 8716825.660 -17431262.076 10 0 60296 78300.00000 0 17746140.485 10244888.536 -15162261.248 10 0 60296 79200.00000 0 18983582.435 11448801.917 -12598139.861 10 0 60296 80100.00000 0 20069834.424 12326317.302 -9789008.808 10 0 60296 81000.00000 0 20946547.060 12888037.746 -6789661.749 10 0 60296 81900.00000 0 21560774.880 13156693.514 -3658492.820 10 0 60296 82800.00000 0 21867274.038 13165917.494 -456351.145 10 0 60296 83700.00000 0 21830488.913 12958575.388 2754644.665 10 0 60296 84600.00000 0 21426145.601 12584723.884 5912308.587 10 0 60296 85500.00000 0 20642387.238 12099284.844 8955582.578 99